Regional Weather Roundup
Issued by NWS

Home | Current Version | Previous Version | Graphics & Text | Print | Product List | Glossary Off
Versions: 1 2 3 4 5 6 7 8 9 10 11 12 13 14 15 16 17 18 19 20 21 22 23 24 25 26 27 28 29 30 31 32 33 34 35 36 37 38 39 40 41 42 43 44 45 46 47 48 49 50

000
ASUS43 KMKX 211500
RWRWI

WISCONSIN REGIONAL WEATHER ROUNDUP
NATIONAL WEATHER SERVICE MILWAUKEE/SULLIVAN WI
1000 AM CDT TUE OCT 21 2014

NOTE: "FAIR" INDICATES FEW OR NO CLOUDS BELOW 12,000 FEET WITH NO
SIGNIFICANT WEATHER AND/OR OBSTRUCTIONS TO VISIBILITY.

WIZ001-002-006>008-014>016-023>028-211600-
NORTHWEST WISCONSIN

CITY           SKY/WX    TMP DP  RH WIND       PRES   REMARKS
SUPERIOR ARPT  CLOUDY    44  35  70 E7        30.25R
ASHLAND        CLOUDY    42  35  76 E7        30.27R
HAYWARD        CLOUDY    42  34  73 E8        30.24R
SIREN          MOSUNNY   46  35  66 SE6       30.23R
CUMBERLAND     PTSUNNY   43  34  70 E6        30.22R
RICE LAKE      MOSUNNY   44  34  67 E10       30.24R
CHETEK         PTSUNNY   43  35  74 E3        30.23R
LADYSMITH      CLOUDY    42  36  78 E6        30.25R
EAU CLAIRE     NOT AVBL
MENOMONIE      SUNNY     45  37  76 E7        30.24R
NEW RICHMOND   SUNNY     43  38  83 E8        30.22R
OSCEOLA        SUNNY     44  41  88 E7        30.25R
$$

WIZ003>005-009-010-017-018-211600-
NORTH CENTRAL WISCONSIN

CITY           SKY/WX    TMP DP  RH WIND       PRES   REMARKS
MANITOWISH WTR CLOUDY    36  35  94 NE6       30.24R WCI  31
ARBOR VITAE    CLOUDY    39  36  88 NE5       30.24R
WOODRUFF       CLOUDY    39  36  88 NE5       30.24R
RHINELANDER    CLOUDY    37  34  89 VRB5      30.25R WCI  33
EAGLE RIVER    CLOUDY    38  33  84 E7        30.23R WCI  32
LAND O LAKES   CLOUDY    38  35  89 NE6       30.25R WCI  33
PHILLIPS       CLOUDY    39  34  82 E7        30.23R WCI  34
TOMAHAWK       CLOUDY    39  34  80 CALM      30.24R
MEDFORD        CLOUDY    41  34  76 NE7       30.22R
MERRILL        CLOUDY    40  34  79 E10       30.24R WCI  34
$$

WIZ029-030-035-036-043>047-211600-
CENTRAL WISCONSIN

CITY           SKY/WX    TMP DP  RH WIND       PRES   REMARKS
WAUSAU         CLOUDY    42  34  73 E7        30.23R
MOSINEE        CLOUDY    43  37  81 NE6       30.24R
MARSHFIELD     CLOUDY    43  35  73 E12       30.22R
STEVENS POINT  CLOUDY    41  34  75 NE9       30.23R
WAUPACA        CLOUDY    46  36  70 NE6       30.23R
WAUTOMA        NOT AVBL
WISC RAPIDS    CLOUDY    44  35  70 E12       30.25R
CAMP DOUGLAS   NOT AVBL
$$

WIZ011>013-019>022-031-037>040-048>050-211600-
NORTHEAST WISCONSIN

CITY           SKY/WX    TMP DP  RH WIND       PRES   REMARKS
ANTIGO         CLOUDY    39  34  82 NE10      30.24R WCI  32
SHAWANO        CLOUDY    45  36  70 N9        30.24R
OCONTO         CLOUDY    43  35  72 NE9G16    30.23R
STURGEON BAY   PTSUNNY   46  34  61 NE13G22   30.22R
GREEN BAY      CLOUDY    45  37  73 N13       30.23R
MANITOWOC      NOT AVBL
APPLETON       CLOUDY    43  36  75 N14       30.23R
CLINTONVILLE   CLOUDY    43  34  70 N9        30.23R
OSHKOSH        CLOUDY    44  37  76 N10       30.22R
$$

WIZ032>034-041-042-053>061-211600-
SOUTHWEST WISCONSIN

CITY           SKY/WX    TMP DP  RH WIND       PRES   REMARKS
LA CROSSE      SUNNY     47  37  68 E7        30.23R
SPARTA         SUNNY     44  37  74 E7        30.23R
VIROQUA        SUNNY     44  38  80 E8        30.21R
BOSCOBEL       SUNNY     45  39  79 NE8       30.23S
PRAIRIE DU CHI FOG       40  39  96 CALM      30.23R VSB 1/2
PLATTEVILLE    SUNNY     46  40  81 NE10      30.21R
$$

WIZ056-057-062-063-064-067-068-211600-
SOUTH CENTRAL WISCONSIN

CITY           SKY/WX    TMP DP  RH WIND       PRES   REMARKS
REEDSBURG      CLOUDY    44  37  76 E7        30.22R
BARABOO/DELLS  CLOUDY    43  36  75 NE6       30.22R
LONE ROCK      NOT AVBL
MINERAL POINT  SUNNY     45  37  76 E9        30.20R
MADISON        PTSUNNY   46  38  73 NE10      30.22R
MIDDLETON      MOSUNNY   47  37  65 NE13      30.22R
WATERTOWN      CLOUDY    44  38  78 N7        30.20R
MONROE         SUNNY     45  37  76 NE14G20   30.19R
JANESVILLE     PTSUNNY   48  37  66 NE13      30.19R
$$

WIZ051-052-058>065-066-070>072-211600-
SOUTHEAST WISCONSIN

CITY           SKY/WX    TMP DP  RH WIND       PRES   REMARKS
MILWAUKEE      CLOUDY    48  39  71 N13       30.18R
WAUKESHA       CLOUDY    45  37  76 N10       30.19R
MILWAUKEE/TIMM CLOUDY    46  37  71 N12       30.19R
RACINE         CLOUDY    48  40  73 N16       30.19R
BURLINGTON     CLOUDY    45  38  75 N10       30.18R
KENOSHA        CLOUDY    49  40  71 N9        30.17R
FOND DU LAC    CLOUDY    45  37  73 N12       30.22R
SHEBOYGAN      CLOUDY    45  38  76 N9        30.19R
WEST BEND      CLOUDY    43  36  75 N9        30.19R
JUNEAU         CLOUDY    44  38  78 N8        30.22R
$$

LSZ147-162-211600-
LAKE SUPERIOR

STATION/POSITION TIME  TEMP    WIND        PRES    WAVE
                       AIR SEA DIR/SP/G            HT/PER
                 (UTC) (F)     (DEG/KT/KT) (MB)    (FT/S)
W MID LAKE BUOY  1350   41 46   60/ 10/ 14 1025.7R   4/ 6
DEVILS ISLAND    1400   42     100/ 12/ 15 1025.7R
PORT WING        1300   44      60/  7/ 10 1024.4
SAXON HARBOR     1300   43     100/  4/ 13 1024.0R
$$

LMZ867-665-643>646-211600-
LAKE MICHIGAN

STATION/POSITION TIME  TEMP    WIND        PRES    WAVE
                       AIR SEA DIR/SP/G            HT/PER
                 (UTC) (F)     (DEG/KT/KT) (MB)    (FT/S)
CHAMBERS ISLAND  1300   45     340/ 19/ 23 1022.4R
N MID LAKE BUOY  1350   44 51   10/ 17/ 21 1022.1R   4/ 5
NORTHPORT PIER   1300   45     360/ 12/ 16 1022.0R
SISTER BAY       1343           20/ 14/ 17   N/A
KEWAUNEE LAKESHO 1400   45      10/ 10/ 19 1021.2R
SHEBOYGAN LAKESH 1400   46 49  350/ 17/ 21 1022.4R
PORT WASHINGTON  1340   47     340/  7/ 12 1022.0R
ATWATER BUOY     1400   48     350/ 17/ 21 1022.1R
MILWAUKEE LAKESH 1400   47     340/ 11/ 18   N/A
S MID LAKE BUOY  1350   50 54  340/ 21/ 25 1019.5R   6/ 7
KENOSHA   LAKESH 1400   47     340/ 13/ 17 1020.7R
$$

TC  - TEMPERATURE IN CELSIUS
VSB - VISIBILITY IN STATUTE MILES
WCI - WIND CHILL INDEX
HX  - HEAT INDEX



USA.gov is the U.S. government's official web portal to all federal, state and local government web resources and services.